This demonstration page uses our WeatherBlox Daily Observations layout. Learn more.

Left ArrowRight Arrow

30.21309, -93.2044

Hourly Observations for February 8, 2022

Temp ( °F °C ) Dew Point ( °F °C ) Humidity (%) Winds ( mph kmh ) Pressure ( in mb ) Visibility ( mi km ) Precip ( " mm )
12:15 am 00:15 Clear 46 7.6 31 -0.8 56 56 N 6 9 30.29 1026 10 16 0.00 0.00
12:35 am 00:35 Clear 46 7.8 30 -1.1 54 54 N 5 7 30.30 1026 10 16 0.00 0.00
12:55 am 00:55 Clear 45 7.1 30 -1 57 57 NE 3 6 30.30 1026 10 16 0.00 0.00
1:15 am 01:15 Clear 44 6.9 30 -1 58 58 Calm 30.30 1026 10 16 0.00 0.00
1:35 am 01:35 Clear 43 6 30 -1 61 61 NNE 6 9 30.29 1026 10 16 0.00 0.00
1:55 am 01:55 Clear 43 6.1 30 -1.1 60 60 NNE 6 9 30.29 1026 10 16 0.00 0.00
2:15 am 02:15 Clear 42 5.6 31 -0.8 64 64 NNE 5 7 30.29 1026 10 16 0.00 0.00
2:35 am 02:35 Clear 41 5.1 31 -0.7 66 66 NE 5 7 30.29 1026 10 16 0.00 0.00
2:55 am 02:55 Clear 42 5.6 30 -0.9 63 63 NE 5 7 30.29 1026 10 16 0.00 0.00
3:15 am 03:15 Clear 41 4.9 30 -1.3 65 65 Calm 30.29 1026 10 16 0.00 0.00
3:35 am 03:35 Clear 40 4.7 30 -1.1 66 66 N 3 6 30.28 1025 10 16 0.00 0.00
3:55 am 03:55 Clear 40 4.5 30 -1 68 68 N 3 6 30.28 1025 10 16 0.00 0.00
4:15 am 04:15 Clear 40 4.4 30 -1 68 68 Calm 30.28 1025 10 16 0.00 0.00
4:35 am 04:35 Clear 37 3 30 -1.2 74 74 Calm 30.28 1025 10 16 0.00 0.00
4:55 am 04:55 Clear 37 2.8 29 -1.4 74 74 NNW 3 6 30.28 1025 10 16 0.00 0.00
5:15 am 05:15 Clear 38 3.4 30 -0.9 74 74 N 3 6 30.28 1025 10 16 0.00 0.00
5:35 am 05:35 Clear 37 2.9 30 -0.9 76 76 N 5 7 30.28 1025 10 16 0.00 0.00
6:00 am 06:00 Mostly Clear 36 2 30 -1 81 81 Calm 30.29 1026 10 16 0.00 0.00
6:56 am 06:56 Mostly Clear 37 3 30 -1 75 75 Calm 30.31 1026 10 16 0.00 0.00
7:52 am 07:52 Mostly Sunny 37 3 30 -1 75 75 Calm 30.32 1027 10 16 0.00 0.00
8:53 am 08:53 Mostly Sunny 45 7 34 1 66 66 Calm 30.34 1027 10 16 0.00 0.00
9:53 am 09:53 Mostly Sunny 52 11 36 2 54 54 SE 7 11 30.34 1027 10 16 0.00 0.00
10:45 am 10:45 Mostly Sunny 54 12 34 1 47 47 Calm 30.33 1027 10 16 0.00 0.00
11:52 am 11:52 Mostly Sunny 57 14 30 -1 36 36 Calm 30.30 1026 10 16 0.00 0.00
12:50 pm 12:50 Mostly Sunny 59 15 27 -3 29 29 VRB 6 9 30.26 1025 10 16 0.00 0.00
1:47 pm 13:47 Mostly Sunny 61 16 27 -3 27 27 VRB 6 9 30.23 1024 10 16 0.00 0.00
2:55 pm 14:55 Mostly Sunny 63 17 27 -3 25 25 NW 8 13 30.20 1023 10 16 0.00 0.00
3:50 pm 15:50 Mostly Sunny 63 17 28 -2 27 27 E 8 13 30.19 1022 10 16 0.00 0.00
4:50 pm 16:50 Mostly Sunny 61 16 30 -1 31 31 ESE 8 13 30.18 1022 10 16 0.00 0.00
5:50 pm 17:50 Mostly Sunny 52 11 32 0 47 47 SE 7 11 30.20 1023 10 16 0.00 0.00
6:45 pm 18:45 Mostly Clear 52 11 32 0 47 47 SSW 9 15 30.19 1022 10 16 0.00 0.00
6:50 pm 18:50 Mostly Clear 52 11 32 0 47 47 SSW 9 15 30.19 1022 10 16 0.00 0.00
7:45 pm 19:45 Mostly Clear 50 10 37 3 62 62 SW 7 11 30.21 1023 10 16 0.00 0.00
8:45 pm 20:45 Mostly Clear 48 9 37 3 66 66 Calm 30.21 1023 10 16 0.00 0.00
9:45 pm 21:45 Mostly Clear 39 4 36 2 87 87 Calm 30.21 1023 10 16 0.00 0.00
10:15 pm 22:15 Clear 48 8.7 39 4 73 73 W 6 9 30.22 1023 10 16 0.00 0.00
10:35 pm 22:35 Clear 48 8.8 39 4 72 72 W 7 11 30.22 1023 10 16 0.00 0.00
10:55 pm 22:55 Clear 47 8.4 39 3.7 73 73 WSW 5 7 30.21 1023 10 16 0.00 0.00
11:15 pm 23:15 Clear 47 8.2 38 3.6 73 73 WSW 6 9 30.21 1023 10 16 0.00 0.00
11:35 pm 23:35 Clear 47 8.4 39 3.9 74 74 WSW 7 11 30.20 1023 10 16 0.00 0.00
11:55 pm 23:55 Clear 43 6.2 38 3.1 81 81 Calm 30.20 1023 10 16 0.00 0.00

Powered by AerisWeather